Orbital Elements at Epoch 2459200.5 (2020-Dec-17.0) TDB
Reference: JPL 16 (heliocentric ecliptic J2000)
Element | Value | Uncertainty (1-sigma) | Units |
e | .1133855850018994 | 5.0337e-08 | |
a | 2.868560879828154 | 1.8605e-08 | au |
q | 2.543307426355276 | 1.4066e-07 | au |
i | 13.83563782669453 | 3.9066e-06 | deg |
node | 128.5933077150848 | 2.28e-05 | deg |
peri | 210.9303072289333 | 4.1167e-05 | deg |
M | 42.08276342213473 | 3.1665e-05 | deg |
tp | 2458993.058194449429 (2020-May-23.55819445) | 0.00015605 | TDB |
period | 1774.575715218497 4.86 | 1.7265e-05 4.727e-08 | d yr |
n | .202865393069844 | 1.9737e-09 | deg/d |
Q | 3.193814333301033 | 2.0715e-08 | au |
|
| | Orbit Determination Parameters
Additional Information
|